Truckee-Tahoe, CA

8:40 PM PDT on September 20, 2019 (GMT -0700)
Truckee-Tahoe

Weather History for KTRK - August, 2019

Change the Weather History Date:

Saturday, August 24, 2019

  Actual Average Record
Temperature  
Mean Temperature 65 °F -  
Max Temperature 84 °F 79 °F 91 °F (2007)
Min Temperature 46 °F 40 °F 24 °F (1973)
Growing Degree Days 15 (Base 50)    
Moisture  
Dew Point 47 °F    
Average Humidity 68    
Maximum Humidity 100    
Minimum Humidity 27    
Precipitation  
Precipitation 0.00 in - - ()
Sea Level Pressure  
Sea Level Pressure 30.21 in    
Wind  
Wind Speed 2 mph (WSW)    
Max Wind Speed 14 mph    
Max Gust Speed 22 mph    
Visibility 9 miles    
Events Fog    
Averages and records for this station are not official NWS values.
T = Trace of Precipitation, MM = Missing Value Source: NWS Daily Summary

Daily Weather History Graph

Daily Weather History Graph

Search for Another Location

Airport or City:

Astronomy

Aug. 24, 2019 Rise Set
Actual Time 6:21 AM PDT 7:43 PM PDT
Civil Twilight 5:53 AM PDT 8:11 PM PDT
Nautical Twilight 5:19 AM PDT 8:44 PM PDT
Astronomical Twilight 4:44 AM PDT 9:20 PM PDT
Moon 12:18 AM PDT (8/24) 3:03 PM PDT (8/24)
Length of Visible Light 14h 17m
Length of Day
13h 21m
Last Quarter, 38% of the Moon is Illuminated
Aug 24
Last Quarter
Aug 30
New
Sep 5
First Quarter
Sep 13
Full
Sep 21
Last Quarter

Hourly Weather History & Observations

Time (PDT) Temp. Dew Point Humidity Pressure Visibility Wind Dir Wind Speed Gust Speed Precip Events Conditions
12:15 AM 55.4 °F 50.0 °F 82% 30.16 in 10.0 mi Calm Calm - N/A   Clear
12:35 AM 53.6 °F 50.0 °F 88% 30.17 in 10.0 mi Calm Calm - N/A   Clear
12:55 AM 55.4 °F 48.2 °F 77% 30.17 in 10.0 mi Calm Calm - N/A   Clear
1:15 AM 55.4 °F 50.0 °F 82% 30.17 in 10.0 mi Calm Calm - N/A   Clear
1:35 AM 53.6 °F 50.0 °F 88% 30.17 in 10.0 mi Calm Calm - N/A   Clear
1:55 AM 51.8 °F 46.4 °F 82% 30.17 in 10.0 mi Calm Calm - N/A   Clear
2:15 AM 51.8 °F 50.0 °F 94% 30.17 in 10.0 mi Calm Calm - N/A   Clear
2:35 AM 51.8 °F 48.2 °F 88% 30.17 in 10.0 mi Calm Calm - N/A   Clear
2:55 AM 50.0 °F 46.4 °F 87% 30.17 in 10.0 mi Calm Calm - N/A   Clear
3:15 AM 50.0 °F 48.2 °F 94% 30.17 in 10.0 mi Calm Calm - N/A   Clear
3:35 AM 50.0 °F 48.2 °F 94% 30.17 in 10.0 mi Calm Calm - N/A   Clear
3:55 AM 50.0 °F 48.2 °F 94% 30.17 in 10.0 mi Calm Calm - N/A   Clear
4:15 AM 50.0 °F 46.4 °F 87% 30.18 in 10.0 mi Calm Calm - N/A   Clear
4:35 AM 48.2 °F 46.4 °F 93% 30.19 in 4.0 mi Calm Calm - N/A   Clear
4:55 AM 50.0 °F 48.2 °F 94% 30.19 in 7.0 mi Calm Calm - N/A   Clear
5:15 AM 48.2 °F 46.4 °F 93% 30.19 in 1.2 mi Calm Calm - N/A   Mist
5:35 AM 46.4 °F 46.4 °F 100% 30.19 in 1.2 mi Calm Calm - N/A   Mist
5:55 AM 48.2 °F 48.2 °F 100% 30.19 in 4.0 mi Calm Calm - N/A   Clear
6:15 AM 48.2 °F 46.4 °F 93% 30.19 in 10.0 mi Calm Calm - N/A   Clear
6:35 AM 46.4 °F 46.4 °F 100% 30.20 in 0.2 mi Calm Calm - N/A Fog Fog
6:45 AM 46.4 °F 46.4 °F 100% 30.20 in 10.0 mi Calm Calm - N/A   Clear
7:50 AM 53.6 °F 50.0 °F 88% 30.22 in 10.0 mi Calm Calm - N/A   Clear
8:45 AM 60.8 °F 51.8 °F 72% 30.22 in 10.0 mi Calm Calm - N/A   Clear
12:45 PM 82.4 °F 46.4 °F 28% 30.21 in 10.0 mi West 11.5 mph - N/A   Clear
1:50 PM 84.2 °F 46.4 °F 27% 30.21 in 10.0 mi WSW 13.8 mph 17.3 mph N/A   Clear
2:45 PM 84.2 °F 46.4 °F 27% 30.21 in 10.0 mi West 10.4 mph 21.9 mph N/A   Clear
3:50 PM 84.2 °F 46.4 °F 27% 30.21 in 10.0 mi SW 13.8 mph 18.4 mph N/A   Clear
4:50 PM 84.2 °F 48.2 °F 29% 30.20 in 10.0 mi West 11.5 mph - N/A   Clear
5:45 PM 80.6 °F 46.4 °F 30% 30.22 in 10.0 mi West 9.2 mph - N/A   Clear
6:15 PM 78.8 °F 48.2 °F 34% 30.22 in 10.0 mi West 8.1 mph - N/A   Clear
6:35 PM 77.0 °F 46.4 °F 34% 30.22 in 10.0 mi West 9.2 mph - N/A   Clear
6:55 PM 77.0 °F 46.4 °F 34% 30.22 in 10.0 mi WNW 10.4 mph - N/A   Clear
7:15 PM 75.2 °F 46.4 °F 36% 30.23 in 10.0 mi West 8.1 mph - N/A   Clear
7:35 PM 71.6 °F 46.4 °F 41% 30.23 in 10.0 mi West 6.9 mph - N/A   Clear
7:55 PM 71.6 °F 46.4 °F 41% 30.23 in 10.0 mi West 6.9 mph - N/A   Clear
8:15 PM 68.0 °F 46.4 °F 46% 30.24 in 10.0 mi Calm Calm - N/A   Clear
8:35 PM 66.2 °F 44.6 °F 46% 30.24 in 10.0 mi Calm Calm - N/A   Clear
8:55 PM 62.6 °F 44.6 °F 52% 30.25 in 10.0 mi SE 3.5 mph - N/A   Clear
9:15 PM 60.8 °F 42.8 °F 52% 30.26 in 10.0 mi SE 5.8 mph - N/A   Clear
9:35 PM 59.0 °F 44.6 °F 59% 30.26 in 10.0 mi SE 5.8 mph - N/A   Clear
9:55 PM 59.0 °F 44.6 °F 59% 30.26 in 10.0 mi SE 5.8 mph - N/A   Clear
10:15 PM 55.4 °F 44.6 °F 67% 30.27 in 10.0 mi Calm Calm - N/A   Clear
10:35 PM 55.4 °F 44.6 °F 67% 30.27 in 10.0 mi Calm Calm - N/A   Clear
10:55 PM 55.4 °F 46.4 °F 72% 30.27 in 10.0 mi Calm Calm - N/A   Clear
11:15 PM 53.6 °F 42.8 °F 67% 30.27 in 10.0 mi SE 3.5 mph - N/A   Clear
11:35 PM 53.6 °F 42.8 °F 67% 30.28 in 10.0 mi Calm Calm - N/A   Clear
11:55 PM 51.8 °F 44.6 °F 76% 30.28 in 10.0 mi Calm Calm - N/A   Clear